Time,TemperatureF,DewpointF,PressureIn,WindDirection,WindDirectionDegrees,WindSpeedMPH,WindSpeedGustMPH,Humidity,HourlyPrecipIn,Conditions,Clouds,dailyrainin,SoftwareType,DateUTC
2013-05-18 00:31:00,53.3,47.9,30.00,SE,135,0.0,-999.0,82,0.00,,,0.00,Wunderground v.1.15,2013-05-18 07:31:00,
2013-05-18 00:36:00,53.3,47.9,30.00,SE,135,0.0,-999.0,82,0.00,,,0.00,Wunderground v.1.15,2013-05-18 07:36:00,
2013-05-18 00:41:00,53.3,47.9,30.00,SE,135,0.0,-999.0,82,0.00,,,0.00,Wunderground v.1.15,2013-05-18 07:41:00,
2013-05-18 00:46:00,52.9,47.6,30.00,SW,225,0.0,-999.0,82,0.00,,,0.00,Wunderground v.1.15,2013-05-18 07:46:00,
2013-05-18 00:51:00,52.9,47.6,30.00,SW,225,0.0,-999.0,82,0.00,,,0.00,Wunderground v.1.15,2013-05-18 07:51:00,
2013-05-18 00:56:00,52.9,47.6,30.00,SW,225,0.0,-999.0,82,0.00,,,0.00,Wunderground v.1.15,2013-05-18 07:56:00,
2013-05-18 01:01:00,52.9,47.6,30.00,SW,225,0.0,-999.0,82,0.00,,,0.00,Wunderground v.1.15,2013-05-18 08:01:00,
2013-05-18 01:06:00,52.9,47.6,30.00,SW,225,0.0,-999.0,82,0.00,,,0.00,Wunderground v.1.15,2013-05-18 08:06:00,
2013-05-18 01:11:00,52.9,47.6,30.00,SW,225,0.0,-999.0,82,0.00,,,0.00,Wunderground v.1.15,2013-05-18 08:11:00,
2013-05-18 01:16:00,52.5,47.5,30.00,SW,225,0.0,-999.0,83,0.00,,,0.00,Wunderground v.1.15,2013-05-18 08:16:00,
2013-05-18 01:21:00,52.5,47.5,30.00,SW,225,0.0,-999.0,83,0.00,,,0.00,Wunderground v.1.15,2013-05-18 08:21:00,
2013-05-18 01:26:00,52.5,47.5,30.00,SW,225,0.0,-999.0,83,0.00,,,0.00,Wunderground v.1.15,2013-05-18 08:26:00,
2013-05-18 01:31:00,52.5,47.5,30.00,SW,225,0.0,-999.0,83,0.00,,,0.00,Wunderground v.1.15,2013-05-18 08:31:00,
2013-05-18 01:36:00,52.5,47.5,30.00,SW,225,0.0,-999.0,83,0.00,,,0.00,Wunderground v.1.15,2013-05-18 08:36:00,
2013-05-18 01:41:00,52.5,47.5,30.00,SW,225,0.0,-999.0,83,0.00,,,0.00,Wunderground v.1.15,2013-05-18 08:41:00,
2013-05-18 01:46:00,52.1,47.7,30.00,N/A,-737280,0.0,-999.0,85,0.00,,,0.00,Wunderground v.1.15,2013-05-18 08:46:00,
2013-05-18 01:51:00,52.1,47.7,30.00,N/A,-737280,0.0,-999.0,85,0.00,,,0.00,Wunderground v.1.15,2013-05-18 08:51:00,
2013-05-18 01:56:00,52.1,47.7,30.00,N/A,-737280,0.0,-999.0,85,0.00,,,0.00,Wunderground v.1.15,2013-05-18 08:56:00,
2013-05-18 02:01:00,52.1,47.7,30.00,N/A,-737280,0.0,-999.0,85,0.00,,,0.00,Wunderground v.1.15,2013-05-18 09:01:00,
2013-05-18 02:06:00,52.1,47.7,30.00,N/A,-737280,0.0,-999.0,85,0.00,,,0.00,Wunderground v.1.15,2013-05-18 09:06:00,
2013-05-18 02:11:00,52.1,47.7,30.00,N/A,-737280,0.0,-999.0,85,0.00,,,0.00,Wunderground v.1.15,2013-05-18 09:11:00,
2013-05-18 02:16:00,52.1,47.7,30.00,SW,225,0.0,-999.0,85,0.00,,,0.00,Wunderground v.1.15,2013-05-18 09:16:00,
2013-05-18 02:21:00,52.1,47.7,30.00,SW,225,0.0,-999.0,85,0.00,,,0.00,Wunderground v.1.15,2013-05-18 09:21:00,
2013-05-18 02:26:00,52.1,47.7,30.00,SW,225,0.0,-999.0,85,0.00,,,0.00,Wunderground v.1.15,2013-05-18 09:26:00,
2013-05-18 02:31:00,52.1,47.7,30.00,SW,225,0.0,-999.0,85,0.00,,,0.00,Wunderground v.1.15,2013-05-18 09:31:00,
2013-05-18 02:36:00,52.1,47.7,30.00,SW,225,0.0,-999.0,85,0.00,,,0.00,Wunderground v.1.15,2013-05-18 09:36:00,
2013-05-18 02:41:00,52.1,47.7,30.00,SW,225,0.0,-999.0,85,0.00,,,0.00,Wunderground v.1.15,2013-05-18 09:41:00,
2013-05-18 02:46:00,50.8,46.8,30.00,N/A,-737280,0.0,-999.0,86,0.00,,,0.00,Wunderground v.1.15,2013-05-18 09:46:00,
2013-05-18 02:51:00,50.8,46.8,30.00,N/A,-737280,0.0,-999.0,86,0.00,,,0.00,Wunderground v.1.15,2013-05-18 09:51:00,
2013-05-18 02:56:00,50.8,46.8,30.00,N/A,-737280,0.0,-999.0,86,0.00,,,0.00,Wunderground v.1.15,2013-05-18 09:56:00,
2013-05-18 03:01:00,50.8,46.8,30.00,N/A,-737280,0.0,-999.0,86,0.00,,,0.00,Wunderground v.1.15,2013-05-18 10:01:00,
2013-05-18 03:11:00,50.8,46.8,30.00,N/A,-737280,0.0,-999.0,86,0.00,,,0.00,Wunderground v.1.15,2013-05-18 10:11:00,
2013-05-18 03:21:00,50.7,47.0,30.00,N/A,-737280,0.0,-999.0,87,0.00,,,0.00,Wunderground v.1.15,2013-05-18 10:21:00,
2013-05-18 03:26:00,50.7,47.0,30.00,N/A,-737280,0.0,-999.0,87,0.00,,,0.00,Wunderground v.1.15,2013-05-18 10:26:00,
2013-05-18 03:31:00,50.7,47.0,30.00,N/A,-737280,0.0,-999.0,87,0.00,,,0.00,Wunderground v.1.15,2013-05-18 10:31:00,
2013-05-18 03:36:00,50.7,47.0,30.00,N/A,-737280,0.0,-999.0,87,0.00,,,0.00,Wunderground v.1.15,2013-05-18 10:36:00,
2013-05-18 03:41:00,50.7,47.0,30.00,N/A,-737280,0.0,-999.0,87,0.00,,,0.00,Wunderground v.1.15,2013-05-18 10:41:00,
2013-05-18 03:46:00,50.8,47.4,30.01,ESE,113,0.0,-999.0,88,0.00,,,0.00,Wunderground v.1.15,2013-05-18 10:46:00,
2013-05-18 03:51:00,50.8,47.4,30.01,ESE,113,0.0,-999.0,88,0.00,,,0.00,Wunderground v.1.15,2013-05-18 10:51:00,
2013-05-18 03:56:00,50.8,47.4,30.01,ESE,113,0.0,-999.0,88,0.00,,,0.00,Wunderground v.1.15,2013-05-18 10:56:00,
2013-05-18 04:01:00,50.8,47.4,30.01,ESE,113,0.0,-999.0,88,0.00,,,0.00,Wunderground v.1.15,2013-05-18 11:01:00,
2013-05-18 04:06:00,50.8,47.4,30.01,ESE,113,0.0,-999.0,88,0.00,,,0.00,Wunderground v.1.15,2013-05-18 11:06:00,
2013-05-18 04:11:00,50.8,47.4,30.01,ESE,113,0.0,-999.0,88,0.00,,,0.00,Wunderground v.1.15,2013-05-18 11:11:00,
2013-05-18 04:16:00,50.4,47.3,30.01,N/A,-737280,0.0,-999.0,89,0.00,,,0.00,Wunderground v.1.15,2013-05-18 11:16:00,
2013-05-18 04:21:00,50.4,47.3,30.01,N/A,-737280,0.0,-999.0,89,0.00,,,0.00,Wunderground v.1.15,2013-05-18 11:21:00,
2013-05-18 04:26:00,50.4,47.3,30.01,N/A,-737280,0.0,-999.0,89,0.00,,,0.00,Wunderground v.1.15,2013-05-18 11:26:00,
2013-05-18 04:31:00,50.4,47.3,30.01,N/A,-737280,0.0,-999.0,89,0.00,,,0.00,Wunderground v.1.15,2013-05-18 11:31:00,
2013-05-18 04:36:00,50.4,47.3,30.01,N/A,-737280,0.0,-999.0,89,0.00,,,0.00,Wunderground v.1.15,2013-05-18 11:36:00,
2013-05-18 04:41:00,50.4,47.3,30.01,N/A,-737280,0.0,-999.0,89,0.00,,,0.00,Wunderground v.1.15,2013-05-18 11:41:00,
2013-05-18 04:46:00,49.9,46.8,30.01,SSE,158,0.0,-999.0,89,0.00,,,0.00,Wunderground v.1.15,2013-05-18 11:46:00,
2013-05-18 04:51:00,49.9,46.8,30.01,SSE,158,0.0,-999.0,89,0.00,,,0.00,Wunderground v.1.15,2013-05-18 11:51:00,
2013-05-18 04:56:00,49.9,46.8,30.01,SSE,158,0.0,-999.0,89,0.00,,,0.00,Wunderground v.1.15,2013-05-18 11:56:00,
2013-05-18 05:01:00,49.9,46.8,30.01,SSE,158,0.0,-999.0,89,0.00,,,0.00,Wunderground v.1.15,2013-05-18 12:01:00,
2013-05-18 05:06:00,49.9,46.8,30.01,SSE,158,0.0,-999.0,89,0.00,,,0.00,Wunderground v.1.15,2013-05-18 12:06:00,
2013-05-18 05:11:00,49.9,46.8,30.01,SSE,158,0.0,-999.0,89,0.00,,,0.00,Wunderground v.1.15,2013-05-18 12:11:00,
2013-05-18 05:16:00,49.3,46.5,30.02,SSE,158,0.0,-999.0,90,0.00,,,0.00,Wunderground v.1.15,2013-05-18 12:16:00,
2013-05-18 05:21:00,49.3,46.5,30.02,SSE,158,0.0,-999.0,90,0.00,,,0.00,Wunderground v.1.15,2013-05-18 12:21:00,
2013-05-18 05:31:00,49.3,46.5,30.02,SSE,158,0.0,-999.0,90,0.00,,,0.00,Wunderground v.1.15,2013-05-18 12:31:00,
2013-05-18 05:38:00,49.5,47.0,30.02,SSE,150,0.0,0.0,91,0.00,,,0.00,Wunderground v.1.15,2013-05-18 12:38:00,
2013-05-18 05:44:00,49.9,47.7,30.02,SSE,148,0.0,0.0,92,0.00,,,0.00,Wunderground v.1.15,2013-05-18 12:44:00,
2013-05-18 05:50:00,50.2,48.0,30.03,SSE,154,0.0,0.0,92,0.00,,,0.00,Wunderground v.1.15,2013-05-18 12:50:00,
2013-05-18 05:56:00,50.3,47.8,30.03,SSE,154,0.0,0.0,91,0.00,,,0.00,Wunderground v.1.15,2013-05-18 12:56:00,
2013-05-18 06:02:00,50.3,47.8,30.03,SSE,153,0.0,0.0,91,0.00,,,0.00,Wunderground v.1.15,2013-05-18 13:02:00,
2013-05-18 06:08:00,49.9,47.4,30.03,SSE,154,0.0,0.0,91,0.00,,,0.00,Wunderground v.1.15,2013-05-18 13:08:00,
2013-05-18 06:14:00,49.7,47.2,30.03,SSE,154,0.0,0.0,91,0.00,,,0.00,Wunderground v.1.15,2013-05-18 13:14:00,
2013-05-18 06:20:00,49.6,47.1,30.03,SSE,153,0.0,0.0,91,0.00,,,0.00,Wunderground v.1.15,2013-05-18 13:20:00,
2013-05-18 06:26:00,49.5,47.0,30.03,South,173,0.0,0.0,91,0.00,,,0.00,Wunderground v.1.15,2013-05-18 13:26:00,
2013-05-18 06:32:00,49.7,47.5,30.04,SSE,157,0.0,1.0,92,0.00,,,0.00,Wunderground v.1.15,2013-05-18 13:32:00,
2013-05-18 06:38:00,50.0,47.8,30.04,SSE,156,0.0,1.0,92,0.00,,,0.00,Wunderground v.1.15,2013-05-18 13:38:00,
2013-05-18 06:44:00,50.3,48.1,30.04,SSE,156,0.0,1.0,92,0.00,,,0.00,Wunderground v.1.15,2013-05-18 13:44:00,
2013-05-18 06:50:00,50.5,48.3,30.04,SSE,156,0.0,1.0,92,0.00,,,0.00,Wunderground v.1.15,2013-05-18 13:50:00,
2013-05-18 06:56:00,50.8,48.6,30.04,SSE,156,0.0,1.0,92,0.00,,,0.00,Wunderground v.1.15,2013-05-18 13:56:00,
2013-05-18 07:02:00,51.2,49.0,30.04,SSE,156,0.0,0.0,92,0.00,,,0.00,Wunderground v.1.15,2013-05-18 14:02:00,
2013-05-18 07:08:00,51.6,49.4,30.05,SSW,208,0.0,0.0,92,0.00,,,0.00,Wunderground v.1.15,2013-05-18 14:08:00,
2013-05-18 07:14:00,52.3,49.8,30.05,SW,225,0.0,0.0,91,0.00,,,0.00,Wunderground v.1.15,2013-05-18 14:14:00,
2013-05-18 07:20:00,53.4,50.8,30.05,SW,224,0.0,0.0,91,0.00,,,0.00,Wunderground v.1.15,2013-05-18 14:20:00,
2013-05-18 07:26:00,54.9,52.3,30.05,SW,223,0.0,0.0,91,0.00,,,0.00,Wunderground v.1.15,2013-05-18 14:26:00,
2013-05-18 07:32:00,56.3,52.8,30.05,SW,224,0.0,0.0,88,0.00,,,0.00,Wunderground v.1.15,2013-05-18 14:32:00,
2013-05-18 07:38:00,57.2,52.7,30.05,SW,224,0.0,0.0,85,0.00,,,0.00,Wunderground v.1.15,2013-05-18 14:38:00,
2013-05-18 07:44:00,58.2,52.7,30.05,SW,224,0.0,0.0,82,0.00,,,0.00,Wunderground v.1.15,2013-05-18 14:44:00,
2013-05-18 07:50:00,59.7,53.5,30.05,SW,224,0.0,0.0,80,0.00,,,0.00,Wunderground v.1.15,2013-05-18 14:50:00,
2013-05-18 07:56:00,61.5,54.9,30.05,SW,224,0.0,0.0,79,0.00,,,0.00,Wunderground v.1.15,2013-05-18 14:56:00,
2013-05-18 08:02:00,62.0,54.0,30.05,NNW,336,0.0,0.0,75,0.00,,,0.00,Wunderground v.1.15,2013-05-18 15:02:00,
2013-05-18 08:08:00,62.7,53.9,30.05,NNE,12,0.0,0.0,73,0.00,,,0.00,Wunderground v.1.15,2013-05-18 15:08:00,
2013-05-18 08:14:00,63.0,54.2,30.05,NNW,337,0.0,0.0,73,0.00,,,0.00,Wunderground v.1.15,2013-05-18 15:14:00,
2013-05-18 08:20:00,63.7,54.5,30.05,North,360,0.0,0.0,72,0.00,,,0.00,Wunderground v.1.15,2013-05-18 15:20:00,
2013-05-18 08:26:00,64.5,54.5,30.05,NNE,32,0.0,0.0,70,0.00,,,0.00,Wunderground v.1.15,2013-05-18 15:26:00,
2013-05-18 08:32:00,64.5,54.5,30.05,SSE,148,0.0,0.0,70,0.00,,,0.00,Wunderground v.1.15,2013-05-18 15:32:00,
2013-05-18 08:38:00,65.2,54.0,30.06,SSE,155,0.0,0.0,67,0.00,,,0.00,Wunderground v.1.15,2013-05-18 15:38:00,
2013-05-18 08:44:00,65.3,53.6,30.05,SW,232,0.0,0.0,66,0.00,,,0.00,Wunderground v.1.15,2013-05-18 15:44:00,
2013-05-18 08:50:00,65.2,53.6,30.05,SSE,155,0.0,0.0,66,0.00,,,0.00,Wunderground v.1.15,2013-05-18 15:50:00,
2013-05-18 08:56:00,65.8,54.5,30.05,SW,233,0.0,0.0,67,0.00,,,0.00,Wunderground v.1.15,2013-05-18 15:56:00,
2013-05-18 09:02:00,66.2,54.5,30.05,West,278,0.0,0.0,66,0.00,,,0.00,Wunderground v.1.15,2013-05-18 16:02:00,
2013-05-18 09:08:00,66.1,53.6,30.05,SW,226,0.0,0.0,64,0.00,,,0.00,Wunderground v.1.15,2013-05-18 16:08:00,
2013-05-18 09:14:00,66.2,54.1,30.05,WSW,255,0.0,4.0,65,0.00,,,0.00,Wunderground v.1.15,2013-05-18 16:14:00,
2013-05-18 09:20:00,66.5,53.9,30.05,West,259,1.0,2.0,64,0.00,,,0.00,Wunderground v.1.15,2013-05-18 16:20:00,
2013-05-18 09:26:00,66.1,54.0,30.05,East,95,1.0,2.0,65,0.00,,,0.00,Wunderground v.1.15,2013-05-18 16:26:00,
2013-05-18 09:32:00,66.8,54.2,30.05,SW,221,0.0,1.0,64,0.00,,,0.00,Wunderground v.1.15,2013-05-18 16:32:00,
2013-05-18 09:38:00,67.1,54.9,30.05,West,263,0.0,2.0,65,0.00,,,0.00,Wunderground v.1.15,2013-05-18 16:38:00,